Oakland, MD

6:58 AM EDT on June 24, 2017 (GMT -0400)
Oakland

Weather History for K2G4 - September, 2013

Change the Weather History Date:

Tuesday, September 24, 2013

  Actual Average (KMGW) Record (KMGW)
Temperature  
Mean Temperature 52 °F -  
Max Temperature 64 °F 69 °F 89 °F (1970)
Min Temperature 39 °F 50 °F 30 °F (1983)
Degree Days  
Heating Degree Days 14    
Growing Degree Days 2 (Base 50)    
Moisture  
Dew Point 46 °F    
Average Humidity 84    
Maximum Humidity 100    
Minimum Humidity 59    
Precipitation  
Precipitation 0.00 in - - ()
Sea Level Pressure  
Sea Level Pressure 30.07 in    
Wind  
Wind Speed 6 mph (ESE)    
Max Wind Speed 8 mph    
Max Gust Speed -    
Visibility 10 miles    
Events      
Averages and records for this station are not official NWS values.
T = Trace of Precipitation, MM = Missing Value Source: NWS Daily Summary

Daily Weather History Graph

Daily Weather History Graph

Search for Another Location

Airport or City:

Trip Planner

Search our weather history database for the weather conditions in past years. The results will help you decide how hot, cold, wet, or windy it might be!

Date:

Astronomy

Sep. 24, 2013 Rise Set
Actual Time 7:07 AM EDT 7:10 PM EDT
Civil Twilight 6:40 AM EDT 7:37 PM EDT
Nautical Twilight 6:08 AM EDT 8:08 PM EDT
Astronomical Twilight 5:36 AM EDT 8:40 PM EDT
Moon 10:28 PM EDT 12:18 PM EDT
Length of Visible Light 12h 57m
Length of Day
12h 03m
Waning Gibbous, 73% of the Moon is Illuminated
Sep 24
Waning Gibbous
Sep 26
Last Quarter
Oct 4
New
Oct 11
First Quarter
Oct 18
Full

Hourly Weather History & Observations

Time (EDT) Temp. Windchill Dew Point Humidity Pressure Visibility Wind Dir Wind Speed Gust Speed Precip Events Conditions
12:15 AM 41.0 °F 36.4 °F 41.0 °F 100% 30.11 in 10.0 mi East 6.9 mph - N/A   Clear
12:35 AM 41.0 °F 36.4 °F 41.0 °F 100% 30.11 in 10.0 mi East 6.9 mph - N/A   Clear
12:55 AM 41.0 °F 36.4 °F 41.0 °F 100% 30.11 in 10.0 mi East 6.9 mph - N/A   Clear
1:15 AM 41.0 °F 37.1 °F 41.0 °F 100% 30.11 in 10.0 mi East 5.8 mph - N/A   Clear
1:35 AM 39.2 °F 34.2 °F 39.2 °F 100% 30.11 in 10.0 mi ESE 6.9 mph - N/A   Clear
1:55 AM 39.2 °F 33.6 °F 39.2 °F 100% 30.11 in 10.0 mi ESE 8.1 mph - N/A   Clear
2:15 AM 39.2 °F 34.2 °F 39.2 °F 100% 30.11 in 10.0 mi ESE 6.9 mph - N/A   Clear
2:35 AM 41.0 °F 36.4 °F 41.0 °F 100% 30.11 in 10.0 mi ESE 6.9 mph - N/A   Clear
2:55 AM 41.0 °F 36.4 °F 41.0 °F 100% 30.11 in 10.0 mi ESE 6.9 mph - N/A   Clear
3:15 AM 41.0 °F 36.4 °F 41.0 °F 100% 30.11 in 10.0 mi SE 6.9 mph - N/A   Clear
3:35 AM 41.0 °F 36.4 °F 41.0 °F 100% 30.10 in 10.0 mi SE 6.9 mph - N/A   Clear
3:55 AM 41.0 °F 35.8 °F 41.0 °F 100% 30.10 in 10.0 mi SE 8.1 mph - N/A   Clear
4:15 AM 41.0 °F 36.4 °F 41.0 °F 100% 30.10 in 10.0 mi SE 6.9 mph - N/A   Clear
4:35 AM 41.0 °F 36.4 °F 41.0 °F 100% 30.10 in 10.0 mi SE 6.9 mph - N/A   Clear
4:55 AM 41.0 °F 35.8 °F 41.0 °F 100% 30.10 in 10.0 mi SE 8.1 mph - N/A   Clear
5:15 AM 41.0 °F 35.8 °F 41.0 °F 100% 30.10 in 10.0 mi ESE 8.1 mph - N/A   Clear
5:35 AM 41.0 °F 36.4 °F 41.0 °F 100% 30.10 in 10.0 mi SE 6.9 mph - N/A   Clear
5:55 AM 41.0 °F 35.8 °F 41.0 °F 100% 30.09 in 10.0 mi SE 8.1 mph - N/A   Clear
6:15 AM 41.0 °F 35.8 °F 41.0 °F 100% 30.09 in 10.0 mi SE 8.1 mph - N/A   Clear
6:35 AM 41.0 °F 35.8 °F 41.0 °F 100% 30.10 in 10.0 mi SE 8.1 mph - N/A   Clear
6:55 AM 41.0 °F 36.4 °F 41.0 °F 100% 30.10 in 10.0 mi SE 6.9 mph - N/A   Clear
7:15 AM 41.0 °F 35.8 °F 41.0 °F 100% 30.10 in 10.0 mi SE 8.1 mph - N/A   Clear
7:35 AM 41.0 °F 35.8 °F 41.0 °F 100% 30.11 in 10.0 mi SE 8.1 mph - N/A   Clear
7:55 AM 42.8 °F 38.0 °F 42.8 °F 100% 30.11 in 10.0 mi SE 8.1 mph - N/A   Clear
8:15 AM 44.6 °F 40.7 °F 44.6 °F 100% 30.11 in 10.0 mi SE 6.9 mph - N/A   Clear
8:35 AM 44.6 °F 40.7 °F 44.6 °F 100% 30.11 in 10.0 mi SE 6.9 mph - N/A   Clear
8:55 AM 44.6 °F 40.7 °F 42.8 °F 93% 30.11 in 10.0 mi SE 6.9 mph - N/A   Clear
9:15 AM 46.4 °F 44.3 °F 44.6 °F 93% 30.11 in 10.0 mi ESE 4.6 mph - N/A   Clear
9:35 AM 48.2 °F - 44.6 °F 87% 30.11 in 10.0 mi SE 8.1 mph - N/A   Clear
9:55 AM 50.0 °F - 46.4 °F 87% 30.11 in 10.0 mi SSE 4.6 mph - N/A   Clear
10:15 AM 51.8 °F - 46.4 °F 82% 30.11 in 10.0 mi SSE 4.6 mph - N/A   Clear
10:35 AM 53.6 °F - 50.0 °F 88% 30.11 in 10.0 mi SSE 3.5 mph - N/A   Clear
10:55 AM 55.4 °F - 50.0 °F 82% 30.11 in 10.0 mi Calm Calm - N/A   Clear
11:15 AM 57.2 °F - 50.0 °F 77% 30.11 in 10.0 mi South 4.6 mph - N/A   Clear
11:35 AM 57.2 °F - 48.2 °F 72% 30.11 in 10.0 mi SW 5.8 mph - N/A   Clear
11:55 AM 59.0 °F - 50.0 °F 72% 30.11 in 10.0 mi SSW 5.8 mph - N/A   Clear
12:15 PM 59.0 °F - 50.0 °F 72% 30.10 in 10.0 mi South 3.5 mph - N/A   Clear
12:35 PM 60.8 °F - 50.0 °F 68% 30.09 in 10.0 mi WNW 4.6 mph - N/A   Clear
12:55 PM 60.8 °F - 50.0 °F 68% 30.09 in 10.0 mi West 4.6 mph - N/A   Clear
1:15 PM 60.8 °F - 50.0 °F 68% 30.07 in 10.0 mi North 3.5 mph - N/A   Clear
1:35 PM 60.8 °F - 51.8 °F 72% 30.07 in 10.0 mi NNE 5.8 mph - N/A   Clear
1:55 PM 62.6 °F - 51.8 °F 68% 30.06 in 10.0 mi North 4.6 mph - N/A   Clear
2:15 PM 62.6 °F - 50.0 °F 63% 30.06 in 10.0 mi NE 3.5 mph - N/A   Clear
2:35 PM 62.6 °F - 50.0 °F 63% 30.06 in 10.0 mi WNW 3.5 mph - N/A   Clear
2:55 PM 62.6 °F - 50.0 °F 63% 30.06 in 10.0 mi NNW 3.5 mph - N/A   Clear
3:15 PM 64.4 °F - 50.0 °F 59% 30.04 in 10.0 mi NNE 3.5 mph - N/A   Clear
3:35 PM 64.4 °F - 50.0 °F 59% 30.04 in 10.0 mi NNW 3.5 mph - N/A   Clear
3:55 PM 64.4 °F - 50.0 °F 59% 30.03 in 10.0 mi Calm Calm - N/A   Clear
4:15 PM 64.4 °F - 50.0 °F 59% 30.03 in 10.0 mi North 4.6 mph - N/A   Clear
4:35 PM 64.4 °F - 50.0 °F 59% 30.02 in 10.0 mi WNW 3.5 mph - N/A   Clear
4:55 PM 64.4 °F - 51.8 °F 64% 30.02 in 10.0 mi Calm Calm - N/A   Clear
5:15 PM 64.4 °F - 50.0 °F 59% 30.03 in 10.0 mi NNW 4.6 mph - N/A   Clear
5:40 PM 64.4 °F - 50.0 °F 59% 30.03 in 10.0 mi WNW 3.5 mph - N/A   Clear
6:00 PM 62.6 °F - 50.0 °F 63% 30.04 in 10.0 mi NNW 4.6 mph - N/A   Clear
6:20 PM 62.6 °F - 50.0 °F 63% 30.04 in 10.0 mi NW 3.5 mph - N/A   Clear
6:40 PM 60.8 °F - 50.0 °F 68% 30.04 in 10.0 mi NW 3.5 mph - N/A   Clear
7:00 PM 59.0 °F - 50.0 °F 72% 30.04 in 10.0 mi NNW 3.5 mph - N/A   Clear
7:20 PM 57.2 °F - 50.0 °F 77% 30.04 in 10.0 mi NW 3.5 mph - N/A   Clear
7:40 PM 57.2 °F - 50.0 °F 77% 30.03 in 10.0 mi NNW 3.5 mph - N/A   Clear
8:00 PM 55.4 °F - 48.2 °F 77% 30.02 in 10.0 mi North 3.5 mph - N/A   Clear
8:20 PM 55.4 °F - 50.0 °F 82% 30.02 in 10.0 mi Calm Calm - N/A   Clear
8:40 PM 55.4 °F - 50.0 °F 82% 30.02 in 10.0 mi Calm Calm - N/A   Clear
9:00 PM 55.4 °F - 51.8 °F 88% 30.03 in 10.0 mi Calm Calm - N/A   Clear
9:20 PM 53.6 °F - 51.8 °F 94% 30.03 in 10.0 mi SE 3.5 mph - N/A   Clear
9:40 PM 53.6 °F - 51.8 °F 94% 30.02 in 10.0 mi Calm Calm - N/A   Clear
10:00 PM 51.8 °F - 50.0 °F 94% 30.02 in 10.0 mi SE 3.5 mph - N/A   Clear
10:20 PM 51.8 °F - 50.0 °F 94% 30.04 in 10.0 mi ESE 3.5 mph - N/A   Clear
10:40 PM 51.8 °F - 50.0 °F 94% 30.04 in 10.0 mi SE 3.5 mph - N/A   Clear
11:00 PM 51.8 °F - 50.0 °F 94% 30.03 in 10.0 mi ESE 5.8 mph - N/A   Clear
11:20 PM 51.8 °F - 46.4 °F 82% 30.04 in 10.0 mi ESE 5.8 mph - N/A   Clear
11:40 PM 50.0 °F - 46.4 °F 87% 30.03 in 10.0 mi ESE 6.9 mph - N/A   Clear